Regional Weather Roundup
Issued by NWS

Home | Current Version | Previous Version | Graphics & Text | Print | Product List | Glossary On
Versions: 1 2 3 4 5 6 7 8 9 10 11 12 13 14 15 16 17 18 19 20 21 22 23 24 25 26 27 28 29 30 31 32 33 34 35 36 37 38 39 40 41 42 43 44 45 46 47 48 49 50
000
ASUS43 KMPX 221201
RWRMN
WEATHER ROUNDUP FOR MINNESOTA
NATIONAL WEATHER SERVICE TWIN CITIES/CHANHASSEN MN
700 AM CDT WED OCT 22 2014


NOTE: "FAIR" INDICATES FEW OR NO CLOUDS BELOW 12,000 FEET WITH NO
SIGNIFICANT WEATHER AND/OR OBSTRUCTIONS TO VISIBILITY. N/A MEANS
CURRENT SKY AND/OR WEATHER CONDITIONS ARE NOT AVAILABLE.

MNZ060>063-068>070-221300-
   Twin Cities Metro

CITY           SKY/WX    TMP DP  RH WIND       PRES   REMARKS
TWIN CITIES    PTCLDY    39  35  86 SE9       30.21S
6HR MIN TEMP:  39; 6HR MAX TEMP:  45;

ST PAUL        CLEAR     41  37  86 SE13      30.23R
CRYSTAL        CLEAR     43  36  76 SE13      30.19S
BLAINE         CLEAR     43  39  87 SE10G18   30.20S
LAKEVILLE      CLEAR     37  36  93 S5        30.21S
EDEN PRAIRIE   CLEAR     40  36  86 SE10      30.19R
6HR MIN TEMP:  40; 6HR MAX TEMP:  46;

SOUTH ST PAUL  CLEAR     41  36  83 SE9       30.22S
LAKE ELMO      FAIR      41  36  81 S8        30.23S
$$
MNZ001>005-007-008-013>017-022>024-027-028-221300-
   Northwest Minnesota

CITY           SKY/WX    TMP DP  RH WIND       PRES   REMARKS
BEMIDJI        CLEAR     45  39  79 SE13      30.00S
HALLOCK        PTCLDY    55  41  58 S23G29    29.80F
ROSEAU         CLEAR     50  41  71 S15G23    29.88S
WARROAD        CLEAR     48  43  81 SE13G23   29.91S
THIEF RVR FALL CLOUDY    52  39  62 SE15G24   29.87S
CROOKSTON      PTCLDY    54  43  66 S23G30    29.86R
FOSSTON        PTCLDY    48  37  66 SE15G21   29.91F
DETROIT LAKES  PTCLDY    48  41  76 SE18G24   29.95F
MOORHEAD       PTCLDY    54  45  71 S20G30    29.89R
PARK RAPIDS    MOCLDY    45  38  76 SE21      30.02S
MAHNOMEN       FAIR      51  40  66 SE18G26   29.90F
$$
MNZ006-009>011-018-025>026-221300-
   North Central Minnesota

CITY           SKY/WX    TMP DP  RH WIND       PRES   REMARKS
BAUDETTE       CLEAR     44  38  79 SE9       29.96F
FLAG ISLAND    CLEAR     46  41  81 S23       29.92R
INTL FALLS     CLEAR     42  36  79 S9        30.05F
6HR MIN TEMP:  39; 6HR MAX TEMP:  42;

WASKISH        CLEAR     45  39  81 SE13G20   29.98F
BIG FORK       CLEAR     43  36  75 SE10G16   30.08F
LONGVILLE      CLEAR     43  37  81 SE14      30.07S
GRAND RAPIDS   CLEAR     39  34  81 SE15      30.10F
CRANE LAKE     CLEAR     39  36  87 S7        30.14S
ORR            CLEAR     41  34  75 S13G18    30.09F
COOK           CLEAR     41  36  81 S7G16     30.14F
WALKER         FAIR      45  38  76 S13G20    30.04S
$$
MNZ012-019>021-037-221300-
   Northeast Minnesota

CITY           SKY/WX    TMP DP  RH WIND       PRES   REMARKS
DULUTH         CLEAR     39  33  79 SE10      30.19F
6HR MIN TEMP:  39; 6HR MAX TEMP:  41;

ELY            CLEAR     39  36  87 S10       30.18R
HIBBING        CLEAR     36  33  89 SE7       30.16S
EVELETH        CLEAR     34  34 100 SE3       30.18S
DULUTH HARBOR  CLEAR     41  36  81 S6        30.23F
TWO HARBORS    CLEAR     36  25  64 S3        30.21S
SILVER BAY     CLEAR     28  27  93 CALM      30.22S
GRAND MARAIS     N/A     46  42  86 S9        30.27R
G MARAIS ARPRT FOG       37  36  93 S7        30.24S VSB<1/4
$$
MNZ029>031-032-039>041-046>048-054>057-064-221300-
   West Central Minnesota

CITY           SKY/WX    TMP DP  RH WIND       PRES   REMARKS
FERGUS FALLS   CLEAR     52  37  58 SE24G30   29.94F
WHEATON        PTCLDY    48  39  71 SE20G26   29.94R
MORRIS         CLEAR     48  39  71 SE21G26   29.97R
ALEXANDRIA     CLOUDY    47  39  74 SE22      30.03F
ELBOW LAKE     FAIR      49  40  70 SE26G35   29.95F
WADENA         MOCLDY    45  37  76 SE15      30.02R
GLENWOOD       MIX PCPN  46  39  76 SE16G24   30.03F
APPLETON       PTCLDY    52  41  66 SE17G24   29.96F
BENSON         PTCLDY    46  39  76 S16       30.01F
ORTONVILLE     CLEAR     48  41  76 SE17G23   29.93S
MADISON        CLEAR     54  43  66 SE16G24   29.96F
WILLMAR        MOCLDY    48  37  66 SE18G26   30.07F
$$
MNZ033>034-036-042>043-049>051-058-059-221300-
   Central Minnesota

CITY           SKY/WX    TMP DP  RH WIND       PRES   REMARKS
ST CLOUD       CLEAR     44  37  76 SE13      30.13F
6HR MIN TEMP:  43; 6HR MAX TEMP:  48;

SAUK CENTRE    FAIR      44  37  78 SE15G21   30.06F
PAYNESVILLE    CLEAR     42  36  80 E17G28    30.08F
AITKIN         PTCLDY    46  37  71 SE14G22   30.11F
PINE RIVER     CLEAR     43  37  81 SE15      30.10S
BRAINERD       CLEAR     42  36  79 SE14      30.10F
STAPLES        CLEAR     43  37  81 SE14G20   30.05S
LONG PRAIRIE   FAIR      43  36  75 SE16G24   30.06F
LITTLE FALLS   CLEAR     39  36  87 SE9       30.10F
LITCHFIELD     CLEAR     45  39  81 SE13G20   30.11F
BUFFALO        CLEAR     41  36  81 SE9       30.17F
MAPLE LAKE     CLEAR     42  39  87 SE8       30.16F
$$
MNZ037-044-045-052-053-221300-
   East Central Minnesota

CITY           SKY/WX    TMP DP  RH WIND       PRES   REMARKS
PRINCETON      PTCLDY    43  37  81 SE7       30.17S
MORA           PTCLDY    37  34  87 SE6       30.20S
CAMBRIDGE      PTCLDY    43  34  70 SE8       30.17S
RUSH CITY      PTCLDY    40  36  86 SE7       30.21S
MOOSE LAKE     CLEAR     39  34  81 S7        30.17S
HINCKLEY       FAIR      37  36  93 SE5       30.20S
CLOQUET        CLEAR     36  34  93 SE5       30.19S
MCGREGOR       CLEAR     39  36  87 SE10      30.16S
$$
MNZ071>073-080-081-089-090-097-098-221300-
   Southwest Minnesota

CITY           SKY/WX    TMP DP  RH WIND       PRES   REMARKS
MONTEVIDEO     PTCLDY    48  41  76 S14G24    30.01F
GRANITE FALLS  CLEAR     47  39  73 SE15G22   30.04F
CANBY          PTCLDY    55  43  64 S13G21    29.97F
MARSHALL       MOCLDY    54  39  58 S23       30.00F
REDWOOD FALLS  MOCLDY    47  38  71 SE23      30.07F
OLIVIA         MOCLDY    46  37  71 SE18G24   30.06F
PIPESTONE      PTCLDY    52  43  71 S14       30.01S
WINDOM         PTCLDY    46  39  76 SE15      30.10S
WORTHINGTON    MOCLDY    48  39  71 S17G26    30.07F
JACKSON        PTCLDY    46  37  71 S16G22    30.11S
TRACY          MOCLDY    51  41  69 S22G29    30.02F
SLAYTON        PTCLDY    48  41  75 SE17      30.05F
$$
MNZ065>067-074>077-082>085-091>093-221300-
   South Central Minnesota

CITY           SKY/WX    TMP DP  RH WIND       PRES   REMARKS
MANKATO        PTCLDY    43  34  70 SE16      30.17S
NEW ULM        PTCLDY    45  39  81 SE17G24   30.12F
ST JAMES       MOCLDY    46  37  71 SE18G24   30.13F
FAIRMONT       PTCLDY    45  36  70 SE18      30.15S
GLENCOE        CLEAR     43  39  86 SE9       30.15F
FARIBAULT      CLEAR     41  37  87 S9        30.21S
OWATONNA       CLEAR     41  36  81 SE16G22   30.21R
WASECA         CLEAR     37  32  81 SE13G18   30.21S
ALBERT LEA     CLEAR     39  37  93 S12G18    30.21S
$$
MNZ078>079-086>088-094>096-221300-
   Southeast Minnesota

CITY           SKY/WX    TMP DP  RH WIND       PRES   REMARKS
ROCHESTER      CLEAR     37  35  92 S13       30.25S
6HR MIN TEMP:  37; 6HR MAX TEMP:  40;

RED WING       CLEAR     41  36  81 SE10      30.25R
STANTON        CLEAR     42  36  80 S12G20    30.20S
DODGE CENTER   PTCLDY    37  36  93 S10       30.23S
WINONA         CLEAR     37  37 100 CALM      30.30S
AUSTIN         CLEAR     37  36  93 S7        30.23S
PRESTON        CLEAR     35  33  93 SE8       30.27S WCI  29
$$
ABBREVIATIONS USED IN REMARKS
   TC - TEMPERATURES IN CELSIUS
  WCI - WIND CHILL INDEX
   HX - HEAT INDEX
  VSB - VISIBILITY
$$



USA.gov is the U.S. government's official web portal to all federal, state and local government web resources and services.